View from above orbital plane
|
View from above satellite
|
Ground track
|
The orbit data is extracted from the following two-line orbital elements,
1 14064U 83044A 21015.49695968 .00000524 00000-0 56344-4 0 9996
2 14064 64.9989 192.3120 0117442 250.2016 108.6408 14.95004246918847
Epoch (UTC): | 15 January 2021 11:55:37 |
Eccentricity: | 0.0117442 |
inclination: | 64.9989° |
perigee height: | 500 km |
apogee height: | 664 km |
right ascension of ascending node: | 192.3120° |
argument of perigee: | 250.2016° |
revolutions per day: | 14.95004246 |
mean anomaly at epoch: | 108.6408° |
orbit number at epoch: | 91884 |
The dashed part of the orbit path shows where the satellite is in the earth's shadow,
|
|